Wind_Speed
23 21 21 20 20 23 24 26 28 27 27 28 27 28 30 33 32 33 29 32 28 29 31 31 31 29 29
29 27 26 24 21 21 20 20 20 20 20 21 21 21 23 26 29 30 33 35 34 34 35 33 37 36 31
32 29 27 25 25 25 24 24 24 22 22 22 23 24 25 27 27 28 29 31 33 34 34 36 32 29 38
33 31 31 30 29 29 30 28 28 27 26 25 26 27 26 26 27 28 27 27 27 28 32 31 30 27 29
36 35 34 34 35 33 32 32 31 31 30 29 31 30 28 27 28 28 29 29 28 28 28 28 29 29 26
40 39 38 38 35 35 35 35 37 33 32 34 35 34 30 28 28 28 29 29 27 27 27 26 26 26 28
41 41 36 36 36 35 37 37 35 32 31 34 30 30 30 29 29 25 27 27 27 27 27 26 25 25 28
39 38 35 34 34 28 26 23 28 29 28 32 31 31 28 26 24 24 25 25 25 24 25 26 26 28 31
34 30 31 28 25 24 28 29 31 30 28 30 31 31 27 24 24 23 24 23 23 25 26 26 25 24 25
32 31 29 29 27 29 29 31 32 31 30 30 30 27 25 25 24 24 23 22 21 24 26 26 25 23 25
29 28 32 30 29 30 34 31 31 32 29 24 28 27 25 16 17 19 17 17 18 18 18 19 21 24 24
32 34 36 36 34 33 33 33 32 29 27 27 21 20 21 21 22 20 20 21 22 19 18 19 21 23 23
36 36 36 34 34 34 33 32 31 30 29 28 25 24 26 26 25 24 24 22 20 20 18 20 22 24 25
37 34 32 31 31 31 33 33 31 29 27 27 27 26 26 26 27 25 22 17 17 18 17 18 21 24 26
30 31 33 34 33 31 30 30 29 29 28 25 25 25 24 23 21 19 20 21 20 18 19 19 20 21 23
32 30 28 28 29 31 30 29 29 27 24 20 19 17 18 19 19 18 17 17 16 18 20 21 21 20 22
33 32 31 28 30 30 29 25 23 20 18 18 18 18 17 16 13 12 14 15 17 19 20 20 20 21 21
Wind_Direction
244 235 230 222 224 232 238 240 241 246 250 254 257 255 250 250 252 257 258 261 263 264 262 268 272 268 278
238 230 229 232 231 234 237 237 238 244 249 251 254 258 261 255 252 251 254 255 255 258 264 267 269 259 274
234 236 238 238 234 241 244 247 249 248 248 253 257 262 261 258 255 254 257 258 260 258 256 265 272 267 262
233 235 237 242 243 246 247 250 254 255 257 259 262 263 263 260 259 259 258 258 260 262 257 260 261 263 265
232 235 235 238 240 246 250 256 258 262 262 264 266 269 266 261 260 261 261 261 262 263 260 256 257 257 260
230 236 240 243 244 245 248 251 257 257 256 262 262 267 263 263 259 258 261 260 261 263 261 257 252 254 256
237 238 246 248 248 251 250 253 254 262 271 270 269 267 264 258 258 260 265 264 265 262 260 256 251 253 257
240 246 246 253 256 261 252 259 261 262 261 262 261 260 255 253 254 257 261 262 262 261 260 257 253 251 253
236 240 246 249 244 250 255 255 258 259 263 257 256 254 252 245 255 251 257 259 261 260 258 254 253 261 254
235 236 241 243 245 246 254 254 257 260 256 250 251 248 247 248 252 261 260 262 263 259 255 256 254 245 245
238 244 245 249 250 254 256 254 258 255 252 252 247 243 239 244 254 269 261 264 266 265 257 247 247 244 248
238 243 248 245 250 248 252 252 252 250 251 244 239 233 247 253 264 258 266 265 264 262 258 260 254 250 254
242 245 241 250 249 243 241 240 240 239 238 235 238 245 249 253 258 259 266 263 255 253 258 256 257 256 255
241 245 239 238 239 240 236 234 234 231 231 241 247 248 249 249 253 256 257 251 251 249 250 251 252 254 258
231 234 236 238 237 231 229 227 225 233 235 240 243 243 245 244 247 252 252 251 253 253 251 257 257 254 255
229 222 220 223 223 222 221 223 227 226 225 230 233 234 237 239 243 246 248 250 255 261 263 261 254 258 254
219 220 217 218 216 215 218 214 215 217 218 219 224 229 229 228 233 239 251 254 259 264 264 259 260 263 263
Height
1534 1538 1541 1543 1546 1548 1550 1551 1554 1556 1558 1560 1561 1562 1563 1565 1566 1568 1569 1569 1570 1571 1571 1571 1571 1571 1572
1529 1532 1534 1538 1541 1542 1544 1546 1548 1551 1552 1554 1556 1557 1557 1557 1559 1559 1561 1561 1562 1563 1564 1565 1562 1562 1564
1522 1526 1529 1532 1534 1536 1538 1540 1542 1544 1546 1548 1549 1550 1550 1550 1551 1552 1552 1553 1555 1555 1556 1557 1557 1557 1557
1515 1519 1522 1525 1527 1528 1530 1532 1533 1536 1539 1541 1542 1542 1542 1543 1544 1545 1545 1545 1546 1546 1547 1548 1549 1551 1552
1507 1510 1514 1517 1518 1520 1523 1525 1527 1529 1531 1532 1533 1534 1534 1536 1536 1536 1537 1538 1538 1538 1538 1540 1541 1543 1544
1498 1500 1504 1508 1511 1514 1516 1517 1518 1521 1521 1523 1524 1525 1527 1527 1528 1528 1529 1530 1530 1531 1531 1532 1533 1535 1537
1488 1491 1496 1499 1504 1506 1507 1508 1510 1513 1514 1514 1515 1516 1519 1519 1520 1521 1523 1523 1523 1523 1524 1525 1526 1528 1530
1480 1484 1489 1493 1495 1496 1498 1501 1503 1505 1506 1504 1507 1508 1511 1511 1512 1514 1515 1516 1516 1516 1517 1517 1519 1520 1522
1472 1477 1482 1484 1486 1489 1491 1494 1494 1496 1498 1497 1499 1500 1503 1504 1505 1507 1508 1509 1509 1509 1509 1510 1511 1513 1514
1465 1469 1473 1476 1478 1481 1484 1486 1487 1487 1490 1490 1492 1494 1494 1497 1499 1500 1500 1501 1501 1501 1501 1502 1503 1504 1506
1457 1461 1464 1467 1469 1472 1475 1478 1479 1479 1481 1483 1483 1485 1488 1489 1492 1493 1494 1494 1495 1494 1495 1495 1496 1498 1499
1448 1451 1455 1458 1461 1463 1466 1468 1470 1472 1474 1476 1478 1480 1482 1484 1486 1487 1487 1488 1489 1489 1489 1490 1491 1491 1493
1439 1442 1446 1451 1453 1454 1457 1459 1461 1464 1467 1469 1471 1473 1475 1477 1479 1480 1481 1482 1482 1482 1482 1483 1484 1485 1486
1430 1434 1437 1440 1443 1447 1449 1452 1455 1457 1460 1463 1464 1466 1467 1470 1471 1473 1474 1475 1476 1476 1477 1477 1478 1479 1480
1421 1425 1428 1432 1435 1438 1441 1444 1447 1450 1453 1456 1457 1459 1461 1463 1464 1466 1467 1468 1470 1471 1471 1472 1473 1473 1474
1413 1417 1421 1425 1429 1432 1435 1438 1441 1444 1446 1449 1452 1453 1455 1457 1459 1460 1462 1463 1464 1465 1465 1465 1467 1467 1467
1407 1411 1414 1418 1422 1425 1429 1432 1435 1438 1441 1443 1446 1448 1450 1451 1455 1457 1458 1458 1459 1459 1459 1460 1461 1461 1461